{"data":{"norad_id":49217,"epoch":"2026-09-20T05:00:12.648672Z","epoch_age_seconds":50883,"freshness":"FRESH","line1":"1 49217U 21083AH  26263.20847973  .00000098  00000+0  21030-3 0  9991","line2":"2 49217  87.9145 255.4824 0001844 102.0262 258.1078 13.20771324249353","mean_motion":13.20771324,"eccentricity":0.0001844,"inclination_deg":87.9145,"raan_deg":255.4824,"arg_perigee_deg":102.0262,"mean_anomaly_deg":258.1078,"bstar":0.0002103,"rev_number":24935,"period_min":109.02720053301,"perigee_km":1180.3811906397,"apogee_km":1183.1692862732,"semimajor_km":7559.9122384565,"source":"CELESTRAK","updated_at":"2026-09-20T09:00:44.667282Z"}}